UAL1020 KIAH-MMUN

Flight info

Callsign UAL1020
Flight time N/A
Altitude 39000
Route FLYZA5 KELPP A766 KEHLI UL209 BETAS DCT VOMAR
Aircraft B38M/M-SDE1FGHILORVWXY/HB1

Departure

Time N/A
Airport George Bush Intercontinental Airport (KIAH)

Arrival

Time 2026-05-05 00:17
Airport Cancún International Airport (MMUN)
Time Latitude Longitude Altitude Speed Heading
2026-05-05 00:03 21.54230 -87.50285 9132 ft 341 kts 130°
2026-05-05 00:04 21.52743 -87.48392 8773 ft 323 kts 130°
2026-05-05 00:04 21.51327 -87.46590 8429 ft 308 kts 130°
2026-05-05 00:04 21.49992 -87.44891 8101 ft 295 kts 130°
2026-05-05 00:04 21.48698 -87.43242 7781 ft 282 kts 130°
2026-05-05 00:05 21.47451 -87.41654 7493 ft 276 kts 130°
2026-05-05 00:05 21.46218 -87.40082 7194 ft 275 kts 130°
2026-05-05 00:05 21.44988 -87.38516 6883 ft 274 kts 130°
2026-05-05 00:05 21.43766 -87.36958 6575 ft 272 kts 130°
2026-05-05 00:06 21.42545 -87.35404 6282 ft 271 kts 130°
2026-05-05 00:06 21.41334 -87.33863 5978 ft 269 kts 130°
2026-05-05 00:06 21.40129 -87.32329 5672 ft 268 kts 130°
2026-05-05 00:06 21.38929 -87.30802 5367 ft 267 kts 130°
2026-05-05 00:07 21.37735 -87.29284 5069 ft 265 kts 130°
2026-05-05 00:07 21.36548 -87.27773 4772 ft 264 kts 130°
2026-05-05 00:07 21.35381 -87.26289 4596 ft 256 kts 130°
2026-05-05 00:07 21.34263 -87.24869 4490 ft 247 kts 130°
2026-05-05 00:08 21.33171 -87.23481 4356 ft 239 kts 130°
2026-05-05 00:08 21.32116 -87.22144 4224 ft 231 kts 130°
2026-05-05 00:08 21.31095 -87.20845 4097 ft 223 kts 130°
2026-05-05 00:08 21.30105 -87.19602 4003 ft 216 kts 134°
2026-05-05 00:09 21.28875 -87.18695 3848 ft 216 kts 153°
2026-05-05 00:09 21.27538 -87.17958 3707 ft 212 kts 152°
2026-05-05 00:09 21.26265 -87.17258 3565 ft 200 kts 152°
2026-05-05 00:09 21.25041 -87.16590 3344 ft 194 kts 152°
2026-05-05 00:10 21.23856 -87.15944 3130 ft 187 kts 152°
2026-05-05 00:10 21.22734 -87.15306 2995 ft 177 kts 144°
2026-05-05 00:10 21.21967 -87.14358 2983 ft 166 kts 124°
2026-05-05 00:10 21.21304 -87.13352 3048 ft 168 kts 124°
2026-05-05 00:11 21.20515 -87.12419 2911 ft 170 kts 135°
2026-05-05 00:11 21.19665 -87.11536 2655 ft 171 kts 134°
2026-05-05 00:11 21.18837 -87.10635 2376 ft 168 kts 133°
2026-05-05 00:11 21.18037 -87.09732 2114 ft 167 kts 132°
2026-05-05 00:12 21.17246 -87.08817 1801 ft 168 kts 131°
2026-05-05 00:12 21.16455 -87.07886 1496 ft 170 kts 131°
2026-05-05 00:12 21.15706 -87.06917 1301 ft 166 kts 123°
2026-05-05 00:12 21.15085 -87.05900 1248 ft 163 kts 122°
2026-05-05 00:13 21.14441 -87.04894 1263 ft 164 kts 125°
2026-05-05 00:13 21.13775 -87.03899 1291 ft 164 kts 124°
2026-05-05 00:13 21.13129 -87.02889 1299 ft 164 kts 123°
2026-05-05 00:13 21.12490 -87.01872 1300 ft 165 kts 123°
2026-05-05 00:14 21.11854 -87.00854 1297 ft 164 kts 123°
2026-05-05 00:14 21.11221 -86.99836 1297 ft 164 kts 123°
2026-05-05 00:14 21.10590 -86.98825 1297 ft 164 kts 123°
2026-05-05 00:14 21.09963 -86.97813 1296 ft 165 kts 124°
2026-05-05 00:15 21.09327 -86.96794 1290 ft 164 kts 124°
2026-05-05 00:15 21.08699 -86.95787 1300 ft 160 kts 124°
2026-05-05 00:15 21.08095 -86.94817 1230 ft 156 kts 123°
2026-05-05 00:15 21.07509 -86.93874 1103 ft 151 kts 124°
2026-05-05 00:16 21.06930 -86.92943 895 ft 149 kts 123°
2026-05-05 00:16 21.06357 -86.92033 714 ft 147 kts 124°
2026-05-05 00:16 21.05794 -86.91138 521 ft 146 kts 123°
2026-05-05 00:16 21.05229 -86.90230 323 ft 148 kts 124°
2026-05-05 00:17 21.04656 -86.89307 139 ft 151 kts 123°
2026-05-05 00:17 21.04127 -86.88456 39 ft 138 kts 123°
2026-05-05 00:17 21.03749 -86.87848 38 ft 90 kts 123°
2026-05-05 00:17 21.03521 -86.87483 38 ft 40 kts 124°
2026-05-05 00:18 21.03404 -86.87295 36 ft 29 kts 123°
2026-05-05 00:18 21.03420 -86.87198 37 ft 7 kts 33°
2026-05-05 00:18 21.03460 -86.87169 33 ft 4 kts 34°
2026-05-05 00:18 21.03477 -86.87157 34 ft 4 kts 32°
2026-05-05 00:19 21.03480 -86.87155 34 ft 0 kts 29°
2026-05-05 00:19 21.03508 -86.87136 33 ft 10 kts 34°
2026-05-05 00:19 21.03541 -86.87087 32 ft 9 kts 89°
2026-05-05 00:19 21.03511 -86.87020 32 ft 11 kts 123°
2026-05-05 00:20 21.03495 -86.86941 32 ft 7 kts 31°
2026-05-05 00:20 21.03522 -86.86925 32 ft 6 kts 31°
2026-05-05 00:20 21.03540 -86.86913 32 ft 1 kts 32°
2026-05-05 00:20 21.03543 -86.86911 32 ft 0 kts 32°
2026-05-05 00:21 21.03544 -86.86910 32 ft 1 kts 31°